Date String (YYYY-MM-DD hh:mm:ss) UTC,Instrument flags,Ambient pressure (hPa),Sample flow (lpm),Bypass flow (lpm),Sample temperature (°C),Ambient temperature (°C),ASC tube jacket temperature (°C),LED temperature (°C),Box temperature (°C),Sample RH (%),Span deviation,Mass concentration (μg/m³),Mass concentration (μg/m³),Mass concentration (μg/m³)
DateTimeUTC,F1_M11,P_M11,Q1_M11,Q2_M11,T1_M11,T2_M11,T3_M11,T4_M11,T5_M11,U1_M11,ZSPAN_M11,X0_M11,X2_M11,X1_M11
2022-11-14 12:00:00,,0825.4,4.99,0.00,22.3,21.2,00.0,31.2,24.2,08.8,0000.0,0009.71,0004.78,0004.26
2022-11-14 12:01:00,,0825.4,5.00,0.00,22.3,21.0,00.0,31.2,24.1,08.8,0000.0,0009.23,0004.80,0004.25
2022-11-14 12:02:00,,0825.4,5.00,0.00,22.3,20.8,00.0,31.2,24.1,08.8,0000.0,0009.44,0004.82,0004.25
2022-11-14 12:03:00,,0825.5,5.02,0.00,22.3,20.8,00.0,31.2,24.1,08.8,0000.0,0009.52,0004.77,0004.24
2022-11-14 12:04:00,,0825.4,4.99,0.00,22.2,20.7,00.0,31.1,24.0,08.7,0000.0,0009.56,0004.78,0004.24
2022-11-14 12:05:00,,0825.4,4.99,0.00,22.2,20.6,00.0,31.1,24.0,08.7,0000.0,0009.48,0004.76,0004.24
2022-11-14 12:06:00,,0825.4,4.99,0.00,22.2,20.6,00.0,31.1,24.0,08.7,0000.0,0009.28,0004.74,0004.24
2022-11-14 12:07:00,,0825.4,5.01,0.00,22.2,20.5,00.0,31.1,23.9,08.7,0000.0,0009.41,0004.75,0004.23
2022-11-14 12:08:00,,0825.4,5.00,0.00,22.2,21.1,00.0,31.1,24.1,08.7,0000.0,0009.48,0004.74,0004.23
2022-11-14 12:09:00,,0825.5,4.99,0.00,22.3,21.9,00.0,31.1,24.3,08.7,0000.0,0009.55,0004.73,0004.23
2022-11-14 12:10:00,,0825.5,4.99,0.00,22.4,22.1,00.0,31.1,24.4,08.6,0000.0,0009.04,0004.71,0004.22
2022-11-14 12:11:00,,0825.4,5.01,0.00,22.4,21.8,00.0,31.1,24.3,08.6,0000.0,0008.75,0004.69,0004.21
2022-11-14 12:12:00,,0825.4,4.99,0.00,22.4,21.5,00.0,31.1,24.3,08.6,0000.0,0008.80,0004.68,0004.22
2022-11-14 12:13:00,,0825.4,4.99,0.00,22.3,21.2,00.0,31.1,24.2,08.5,0000.0,0008.64,0004.67,0004.23
2022-11-14 12:14:00,,0825.5,5.00,0.00,22.3,21.0,00.0,31.2,24.2,08.5,0000.0,0008.53,0004.73,0004.24
2022-11-14 12:15:00,,0825.4,5.00,0.00,22.3,20.9,00.0,31.2,24.1,08.5,0000.0,0008.35,0004.71,0004.24
2022-11-14 12:16:00,,0825.5,5.01,0.00,22.3,20.8,00.0,31.1,24.1,08.5,0000.0,0008.25,0004.70,0004.24
2022-11-14 12:17:00,,0825.4,5.00,0.00,22.3,20.7,00.0,31.1,24.1,08.5,0000.0,0008.30,0004.70,0004.23
2022-11-14 12:18:00,,0825.5,5.00,0.00,22.2,20.7,00.0,31.1,24.0,08.5,0000.0,0008.23,0004.69,0004.25
2022-11-14 12:19:00,,0825.4,5.00,0.00,22.2,20.6,00.0,31.1,24.0,08.5,0000.3,0008.19,0004.71,0004.25
2022-11-14 12:20:00,,0825.5,5.00,0.00,22.2,20.6,00.0,31.1,23.9,08.5,0000.0,0008.26,0004.74,0004.26
2022-11-14 12:21:00,,0825.4,5.00,0.00,22.2,21.3,00.0,31.0,24.1,08.5,0000.0,0008.26,0004.73,0004.25
2022-11-14 12:22:00,,0825.5,5.01,0.00,22.3,22.2,00.0,31.0,24.3,08.5,0000.0,0008.24,0004.72,0004.24
2022-11-14 12:23:00,,0825.4,4.98,0.00,22.4,22.2,00.0,31.1,24.4,08.4,0000.0,0008.29,0004.71,0004.24
2022-11-14 12:24:00,,0825.4,5.01,0.00,22.4,21.7,00.0,31.1,24.3,08.4,0000.0,0008.25,0004.69,0004.23
2022-11-14 12:25:00,,0825.4,5.01,0.00,22.4,21.4,00.0,31.1,24.2,08.4,0000.0,0008.20,0004.67,0004.23
2022-11-14 12:26:00,,0825.4,5.00,0.00,22.3,21.2,00.0,31.2,24.2,08.4,0000.2,0008.21,0004.66,0004.22
2022-11-14 12:27:00,,0825.4,5.00,0.00,22.3,20.9,00.0,31.2,24.1,08.4,0000.0,0008.24,0004.66,0004.23
2022-11-14 12:28:00,,0825.4,5.00,0.00,22.3,20.8,00.0,31.1,24.1,08.4,0000.0,0008.70,0004.67,0004.23
2022-11-14 12:29:00,,0825.4,5.01,0.00,22.3,20.7,00.0,31.1,24.0,08.4,0000.0,0008.89,0004.66,0004.23
2022-11-14 12:30:00,,0825.4,5.01,0.00,22.2,20.6,00.0,31.1,24.0,08.4,0000.0,0008.88,0004.65,0004.22
2022-11-14 12:31:00,,0825.4,5.00,0.00,22.2,20.6,00.0,31.1,24.0,08.4,0000.0,0008.84,0004.66,0004.21
2022-11-14 12:32:00,,0825.4,4.98,0.00,22.2,20.5,00.0,31.1,23.9,08.4,0000.0,0009.37,0004.69,0004.22
2022-11-14 12:33:00,,0825.4,5.01,0.00,22.2,21.0,00.0,31.1,24.0,08.4,0000.0,0009.59,0004.68,0004.22
2022-11-14 12:34:00,,0825.4,5.01,0.00,22.3,21.9,00.0,31.0,24.3,08.4,0000.0,0009.35,0004.66,0004.22
2022-11-14 12:35:00,,0825.5,4.99,0.00,22.4,22.2,00.0,31.1,24.4,08.4,0000.0,0009.39,0004.68,0004.22
2022-11-14 12:36:00,,0825.5,4.99,0.00,22.4,21.8,00.0,31.1,24.4,08.4,0000.0,0009.62,0004.67,0004.21
2022-11-14 12:37:00,,0825.4,5.01,0.00,22.4,21.5,00.0,31.1,24.3,08.4,0000.0,0009.99,0004.69,0004.23
2022-11-14 12:38:00,,0825.4,5.01,0.00,22.3,21.2,00.0,31.2,24.2,08.4,0000.0,0010.21,0004.71,0004.22
2022-11-14 12:39:00,,0825.5,4.98,0.00,22.3,21.0,00.0,31.2,24.2,08.4,0000.0,0009.68,0004.68,0004.21
2022-11-14 12:40:00,,0825.4,5.00,0.00,22.3,20.9,00.0,31.2,24.1,08.4,0001.1,0009.46,0004.68,0004.20
2022-11-14 12:41:00,,0825.5,5.01,0.00,22.2,20.7,00.0,31.1,24.0,08.4,0002.5,0009.52,0004.69,0004.20
2022-11-14 12:42:00,,0825.5,5.01,0.00,22.2,20.6,00.0,31.1,24.0,08.4,0001.5,0009.52,0004.70,0004.20
2022-11-14 12:43:00,,0825.5,5.00,0.00,22.2,20.5,00.0,31.1,23.9,08.5,0001.6,0009.51,0004.69,0004.20
2022-11-14 12:44:00,,0825.5,5.00,0.00,22.2,20.5,00.0,31.1,23.9,08.5,0001.7,0009.38,0004.71,0004.20
2022-11-14 12:45:00,,0825.5,5.00,0.00,22.2,20.8,00.0,31.1,24.0,08.5,0001.4,0009.37,0004.72,0004.20
2022-11-14 12:46:00,,0825.5,5.01,0.00,22.2,21.7,00.0,31.0,24.2,08.5,0001.4,0009.41,0004.69,0004.20
2022-11-14 12:47:00,,0825.5,4.99,0.00,22.3,22.3,00.0,31.0,24.4,08.5,0001.9,0009.26,0004.67,0004.20
2022-11-14 12:48:00,,0825.5,4.99,0.00,22.4,22.0,00.0,31.1,24.3,08.5,0001.6,0009.13,0004.65,0004.20
2022-11-14 12:49:00,,0825.5,5.00,0.00,22.4,21.6,00.0,31.1,24.3,08.5,0001.3,0009.63,0004.67,0004.20
2022-11-14 12:50:00,,0825.5,5.01,0.00,22.3,21.4,00.0,31.1,24.2,08.5,0000.0,0009.61,0004.68,0004.21
2022-11-14 12:51:00,,0825.5,4.99,0.00,22.3,21.1,00.0,31.1,24.1,08.6,0000.0,0009.66,0004.70,0004.23
2022-11-14 12:52:00,,0825.5,5.01,0.00,22.3,20.9,00.0,31.1,24.1,08.7,0000.0,0009.74,0004.70,0004.23
2022-11-14 12:53:00,,0825.5,5.01,0.00,22.3,20.8,00.0,31.1,24.1,08.8,0000.0,0009.63,0004.67,0004.23
2022-11-14 12:54:00,,0825.6,5.00,0.00,22.2,20.7,00.0,31.1,24.0,08.8,0000.0,0009.35,0004.68,0004.24
2022-11-14 12:55:00,,0825.5,4.99,0.00,22.2,20.7,00.0,31.1,24.0,08.8,0000.0,0008.95,0004.65,0004.24
2022-11-14 12:56:00,,0825.6,4.99,0.00,22.2,20.7,00.0,31.1,24.0,08.6,0000.0,0009.12,0004.69,0004.24
2022-11-14 12:57:00,,0825.6,5.01,0.00,22.2,20.8,00.0,31.1,24.0,08.7,0000.0,0009.16,0004.71,0004.24
2022-11-14 12:58:00,,0825.6,5.00,0.00,22.3,21.5,00.0,31.1,24.2,08.6,0000.0,0009.59,0004.76,0004.25
2022-11-14 12:59:00,,0825.6,4.99,0.00,22.4,22.3,00.0,31.1,24.4,08.6,0000.0,0010.77,0004.80,0004.27
